sat.trackr.live / text

‹ back to catalog

IRIDE-MS1-EAGLET 2-13

NORAD 68450 · 2026-067AL

PAYLOAD ACTIVE UNKNOWN

§ Identity

Operator
Country
IT
Launch date
2026-03-30
Launch site
AFWTR
Launch vehicle
Mass (kg)
RCS (m²)

External: N2YO · Heavens-Above · Gunter

§ Orbital elements

Epoch: 2026-05-25T03:10:14.060352Z

Period
94.83 min
Inclination
97.4532°
Eccentricity
0.0004068
Mean motion
15.18456061 rev/d
Perigee alt
507.7 km
Apogee alt
513.3 km
Semi-major
6,888.6 km
B*
3.1970e-4
RAAN
103.9520°
Arg perigee
94.6422°
Mean anomaly
265.5277°
Rev number
844

§ Raw data

IRIDE-MS1-EAGLET 2-131 68450U 26067AL  26145.13210718  .00006521  00000+0  31970-3 0  99912 68450  97.4532 103.9520 0004068  94.6422 265.5277 15.18456061  8447

JSON: /api/v1/satellites/68450 · /tle

For live sub-satellite position, see the globe view (requires WebGL).

§ Visibility from observer

Set your observer location to see the next 7 days of passes ≥ 10°. The values pass through the URL so the page stays shareable.

No JS? Fill the form by hand. The geolocation button needs JavaScript.